Change the Weather History Date:

Monday, March 24, 2014

  Actual Average (KJFX) Record (KJFX)
Temperature  
Mean Temperature 42 °F -  
Max Temperature 56 °F 67 °F 85 °F (1967)
Min Temperature 27 °F 36 °F 17 °F (1968)
Degree Days  
Heating Degree Days 24    
Moisture  
Dew Point 23 °F    
Average Humidity 49    
Maximum Humidity 88    
Minimum Humidity 22    
Precipitation  
Precipitation 0.00 in - - ()
Sea Level Pressure  
Sea Level Pressure 30.19 in    
Wind  
Wind Speed 3 mph (NNE)    
Max Wind Speed 8 mph    
Max Gust Speed -    
Visibility 10 miles    
Events      
Averages and records for this station are not official NWS values.
T = Trace of Precipitation, MM = Missing Value Source: NWS Daily Summary

Daily Weather History Graph

Daily Weather History Graph

Search for Another Location

Airport or City:

Trip Planner

Search our weather history database for the weather conditions in past years. The results will help you decide how hot, cold, wet, or windy it might be!

Date:

Astronomy

Mar. 24, 2014 Rise Set
Actual Time 6:48 AM CDT 7:05 PM CDT
Civil Twilight 6:23 AM CDT 7:30 PM CDT
Nautical Twilight 5:54 AM CDT 7:59 PM CDT
Astronomical Twilight 5:24 AM CDT 8:29 PM CDT
Moon 2:04 AM CDT (3/24) 12:44 PM CDT (3/24)
Length of Visible Light 13h 06m
Length of Day
12h 16m
Last Quarter, 43% of the Moon is Illuminated
Mar 24
Last Quarter
Mar 30
New
Apr 7
First Quarter
Apr 15
Full
Apr 22
Last Quarter

Hourly Weather History & Observations

Time (CDT) Temp. Windchill Dew Point Humidity Pressure Visibility Wind Dir Wind Speed Gust Speed Precip Events Conditions
12:56 AM 36.9 °F 33.1 °F 27.1 °F 68% 30.28 in 10.0 mi Variable 4.6 mph - N/A   Clear
1:56 AM 34.9 °F - 26.1 °F 70% 30.28 in 10.0 mi Calm Calm - N/A   Clear
2:56 AM 32.9 °F 28.5 °F 25.2 °F 73% 30.26 in 10.0 mi NNE 4.6 mph - N/A   Clear
3:56 AM 32.0 °F 27.5 °F 25.2 °F 76% 30.26 in 10.0 mi NNE 4.6 mph - N/A   Clear
4:56 AM 31.1 °F - 23.0 °F 72% 30.27 in 10.0 mi Calm Calm - N/A   Clear
5:56 AM 30.0 °F - 23.0 °F 75% 30.27 in 10.0 mi Calm Calm - N/A   Clear
6:56 AM 27.1 °F - 24.1 °F 88% 30.29 in 10.0 mi Calm Calm - N/A   Clear
7:56 AM 31.1 °F - 24.1 °F 75% 30.30 in 10.0 mi Calm Calm - N/A   Clear
8:56 AM 37.9 °F 32.7 °F 24.1 °F 57% 30.30 in 10.0 mi NE 6.9 mph - N/A   Clear
9:56 AM 43.0 °F 38.8 °F 25.2 °F 49% 30.30 in 10.0 mi Variable 6.9 mph - N/A   Clear
10:56 AM 46.9 °F - 22.1 °F 38% 30.28 in 10.0 mi Calm Calm - N/A   Scattered Clouds
11:56 AM 50.9 °F - 19.0 °F 28% 30.25 in 10.0 mi NNE 6.9 mph - N/A   Clear
12:56 PM 52.9 °F - 21.0 °F 29% 30.22 in 10.0 mi Variable 4.6 mph - N/A   Clear
1:56 PM 54.0 °F - 16.2 °F 23% 30.17 in 10.0 mi Variable 3.5 mph - N/A   Clear
2:56 PM 56.8 °F - 19.0 °F 23% 30.14 in 10.0 mi ENE 4.6 mph - N/A   Scattered Clouds
3:56 PM 55.9 °F - 17.1 °F 22% 30.10 in 10.0 mi NE 8.1 mph - N/A   Partly Cloudy
4:56 PM 54.0 °F - 20.1 °F 27% 30.08 in 10.0 mi North 5.8 mph - N/A   Scattered Clouds
5:56 PM 52.9 °F - 20.1 °F 28% 30.07 in 10.0 mi North 4.6 mph - N/A   Partly Cloudy
6:56 PM 50.0 °F - 20.1 °F 31% 30.07 in 10.0 mi Calm Calm - N/A   Partly Cloudy
7:56 PM 45.0 °F - 24.1 °F 44% 30.08 in 10.0 mi Calm Calm - N/A   Scattered Clouds
8:56 PM 45.0 °F - 25.2 °F 46% 30.09 in 10.0 mi Calm Calm - N/A   Overcast
9:56 PM 45.0 °F - 27.1 °F 50% 30.10 in 10.0 mi Calm Calm - N/A   Overcast
10:56 PM 45.0 °F - 22.1 °F 40% 30.10 in 10.0 mi Calm Calm - N/A   Partly Cloudy
11:56 PM 43.9 °F 39.9 °F 23.0 °F 44% 30.10 in 10.0 mi NNW 6.9 mph - N/A   Mostly Cloudy